Regional Weather Roundup
Issued by NWS Charleston, SC

Current Version | Previous Version | Text Only | Print | Product List | Glossary Off
Versions: 1 2 3 4 5 6 7 8 9 10 11 12 13 14 15 16 17 18 19 20 21 22 23 24 25 26 27 28 29 30 31 32 33 34 35 36 37 38 39 40 41 42 43 44 45 46 47 48 49 50

000
ASUS42 KCHS 262027
RWRCHS

REGIONAL WEATHER ROUNDUP
NATIONAL WEATHER SERVICE CHARLESTON SC
400 PM EDT SUN MAR 26 2017

NOTE: "FAIR" INDICATES FEW OR NO CLOUDS BELOW 12,000 FEET WITH NO
SIGNIFICANT WEATHER AND/OR OBSTRUCTIONS TO VISIBILITY.

NOT ALL STATIONS ARE QUALITY CONTROLLED. USE DATA WITH CAUTION...
ESPECIALLY DEWPOINT OBSERVATIONS.

SCZ027-030-031-034>040-042>050-262100-
...SOUTHEAST SOUTH CAROLINA...

CITY           SKY/WX    TMP DP  RH WIND       PRES   REMARKS
N CHARLESTON   MOSUNNY   79  53  40 S17       30.15F
WATERFRONT PRK   N/A     70  61  73 S10       30.15F
JOHNS ISLAND   FAIR      77  59  53 SE12G17   30.16F
PINOPOLIS        N/A     77  54  44 S5        30.07F
MONCKS CORNER  FAIR      79  48  34 S10G18    30.13F
SUMMERVILLE    MOCLDY    79  54  41 S8G16     30.14F
BEAUFORT MCAS  MOSUNNY   79  61  53 S8        30.14F
BEAUFORT ARPT  FAIR      75  59  57 SE10G18   30.14F
HILTON HEAD IS NOT AVBL
WALTERBORO     MOCLDY    77  54  44 S13G20    30.14S
ALLENDALE      MOCLDY    70  63  78 SE6       30.12F

...SOUTHERN MIDLANDS AND PEE DEE...

CITY           SKY/WX    TMP DP  RH WIND       PRES   REMARKS
GEORGETOWN     FAIR      73  52  46 S10       30.17S
KINGSTREE      CLOUDY    77  50  38 E6        30.12F
ORANGEBURG     CLOUDY    77  54  44 S9        30.12F
BARNWELL       FAIR      77  59  53 S8        30.12F
AIKEN          MOCLDY    73  57  56 S13G20    30.14F
MANNING        FAIR      77  52  41 S5        30.12F
COLUMBIA       LGT RAIN  68  63  84 SW9       30.12R
SUMTER         MOSUNNY   78  52  39 S14       30.09F
FLORENCE       MOSUNNY   79  52  38 S10       30.13F
MYRTLE BEACH   MOSUNNY   73  57  56 SE13      30.18F
N MYRTLE BEACH MOSUNNY   72  58  61 SE8       30.18F

$$

GAZ063-065-086>088-099>101-113>116-118-119-134>141-150-262100-
...SOUTHEAST GEORGIA...

CITY           SKY/WX    TMP DP  RH WIND       PRES   REMARKS
SAVANNAH ARPT  MOSUNNY   80  56  43 SE13      30.13F
HUNTER AAF     MOSUNNY   78  62  58 SE12G17   30.11F
FORT STEWART   PTSUNNY   76  59  55 SE12      30.10F
STATESBORO     PTSUNNY   79  60  51 SE10      30.11F
SYLVANIA       PTCLDY   N/A N/A N/A S6        30.13S
CLAXTON        FAIR      79  60  51 E8        30.10F

...CSRA...CENTRAL AND FAR SOUTHEAST GEORGIA...

CITY           SKY/WX    TMP DP  RH WIND       PRES   REMARKS
THOMSON        PTSUNNY   74  58  56 SW6       30.14S
AUGUSTA-BUSH   MOSUNNY   79  56  45 S10       30.09F
AUGUSTA-DANIEL PTSUNNY   77  53  43 SE15      30.11F
SWAINSBORO     LGT RAIN  77  55  47 S6        30.11S
VIDALIA        PTSUNNY   81  55  41 S9        30.10F
EASTMAN        MOCLDY    84  34  16 S6        30.10F
HAZLEHURST     FAIR      81  58  45 SE6       30.09F
ALMA           PTSUNNY   81  58  45 SE8       30.10F
WAYCROSS       CLOUDY    85  59  41 CALM      30.09F
JESUP          CLOUDY    79  54  41 S8        30.11S
BAXLEY         FAIR      81  59  47 S3        30.09F
BRUNSWICK      SUNNY     77  64  65 E13       30.13F
SAINT SIMONS   SUNNY     73  62  68 SE13      30.14F

$$

SCZ027-028-034-036>038-045-046-048>050-GAZ119-141-262100-
...LAKE AND SUPPLEMENTAL COASTAL OBSERVATIONS...

STATION/POSITION TIME  TEMP    WIND        PRES    WAVE   SWELL
                       AIR SEA DIR/SP/G            HT/PER HT/PER/DIR
                 (UTC) (F)     (DEG/KT/KT) (MB)    (FT/S) (FT/S/D)
WINYAH BAY       1930   72     130/ 10     1021.0F
LAKE MURRAY      1950   68     190/  3/  7 1019.6S
ACE BASIN NERRS  1930   77     140/  3     1021.0F
FORT PULASKI     2000   72 63  170/  8/ 12 1021.0
SAPELO ISLAND    2000   76     130/  9     1021.0

$$

ANZ835-935-AMZ111-154-330-350-352-354-370-450-454-472-262100-
...C-MAN AND BUOY OBSERVATIONS...

STATION/POSITION TIME  TEMP    WIND        PRES    WAVE   SWELL
                       AIR SEA DIR/SP/G            HT/PER HT/PER/DIR
                 (UTC) (F)     (DEG/KT/KT) (MB)    (FT/S) (FT/S/D)
BUOY 41004       1950   72 74  150/ 10/ 12 1021.3F   4/ 8   3/130/ 8
BUOY 41008       1950   65 65  120/  8/  8 1020.9F   4/ 8   3/110/ 8
FOLLY BEACH CMAN 2000   68     150/  5/  5 1022.2F
CAPERS NEARSHORE 1908   68     120/  6/  8 1021.7F
FRIPP NEARSHORE  2008   67 64  130/  6/ 10 1020.9F


STATION/POSITION TIME  TEMP    WIND        PRES    WAVE   SWELL
                       AIR SEA DIR/SP/G            HT/PER HT/PER/DIR
                 (UTC) (F)     (DEG/KT/KT) (MB)    (FT/S) (FT/S/D)
5E ST. MARYS GA  2000      67                N/A     3/ 9
FRYING PAN BUOY  2000   72 76  140/ 12/ 16 1022.3
BUOY 41025       1950   70 75  140/  6/  8 1023.5F   3/ 8   3/120/ 8
CAPE LOOKOUT NC  2000   67     130/ 10/ 10 1022.8F
BUOY 41002       1950   68 72   80/ 14/ 17 1022.8F   5/10   3/140/10
BUOY 41010       NOT AVBL
ST AUGUSTINE FL  2000   69 70   70/ 10/ 12 1021.0F


$$



USA.gov is the U.S. government's official web portal to all federal, state and local government web resources and services.